DateTimeUTC,F1_A11,F1_S11,BsB_S11,BsG_S11,BsR_S11,BbsB_S11,BbsG_S11,BbsR_S11,BaB_A11,BaG_A11,BaR_A11,Tu_S11,T_S11,Uu_S11,U_S11,P_S11,T1_A11
2021-08-03T04:00:00Z,00000200,20000000,,,,,,,0000.61,0000.85,0000.86,18.2,25.2,05.0,03.3,0672.1,31.0
2021-08-03T04:01:00Z,00000200,20000000,,,,,,,0000.35,0000.74,0000.46,18.2,25.2,05.1,03.3,0672.1,31.0
2021-08-03T04:02:00Z,00000200,20000000,,,,,,,0000.18,0000.14,0000.45,18.2,25.2,05.1,03.3,0672.1,31.0
2021-08-03T04:03:00Z,00000200,60000000,,,,,,,0001.07,0001.16,0000.74,18.2,25.2,05.4,03.5,0672.1,31.0
2021-08-03T04:04:00Z,00000200,40000000,0005.57,0004.10,0002.27,0000.56,0000.52,0000.58,0001.42,0001.05,0000.50,18.6,25.1,06.0,04.0,0673.0,31.0
2021-08-03T04:05:00Z,00000200,00000000,0006.33,0004.21,0001.97,0001.10,0000.80,0000.43,0000.59,0000.34,0000.63,18.7,25.1,06.1,04.1,0673.1,31.0
2021-08-03T04:06:00Z,00000200,00000000,0006.49,0004.06,0002.75,0000.89,0000.37,0000.33,0001.27,0001.30,0000.77,18.6,25.1,06.1,04.1,0673.1,31.0
2021-08-03T04:07:00Z,00000200,00000000,0004.72,0003.88,0002.25,0000.60,0000.71,0000.22,0000.82,0000.69,0000.98,18.6,25.1,06.2,04.2,0673.1,31.0
2021-08-03T04:08:00Z,00000200,00000000,0005.43,0004.17,0002.25,0000.22,0000.49,0000.08,0001.22,0001.05,0000.59,18.6,25.1,06.1,04.1,0673.1,31.0
2021-08-03T04:09:00Z,00000200,00000000,0005.68,0004.24,0002.11,0000.87,0000.66,0000.09,0000.86,0000.78,0000.20,18.6,25.0,06.0,04.1,0673.1,31.0
2021-08-03T04:10:00Z,00000200,00000000,0005.56,0003.99,0001.83,0000.55,0000.41,0000.04,0001.09,0001.13,0000.98,18.5,25.0,06.0,04.1,0673.1,31.0
2021-08-03T04:11:00Z,00000200,00000000,0006.11,0004.16,0002.17,0000.06,0000.41,0000.20,0001.18,0000.88,0000.67,18.5,25.0,06.1,04.1,0673.1,31.0
2021-08-03T04:12:00Z,00000200,00000000,0004.26,0003.88,0002.12,0000.46,0000.74,-000.06,0001.10,0001.21,0000.73,18.5,25.0,06.0,04.0,0673.1,31.0
2021-08-03T04:13:00Z,00000200,00000000,0005.04,0004.30,0002.55,0000.28,0000.72,0000.29,0001.35,0001.15,0001.42,18.5,25.0,06.3,04.2,0673.1,31.0
2021-08-03T04:14:00Z,00000200,00000000,0005.87,0004.07,0002.26,0000.62,0000.77,0000.34,0001.04,0000.93,0000.48,18.5,24.9,06.2,04.2,0673.1,31.0
2021-08-03T04:15:00Z,00000200,00000000,0005.12,0003.81,0002.19,0000.40,0000.62,0000.41,0001.38,0001.50,0000.85,18.5,24.9,06.2,04.1,0673.1,31.0
2021-08-03T04:16:00Z,00000200,00000000,0005.12,0004.15,0002.27,0000.41,0000.36,0000.34,0001.18,0000.41,0000.90,18.5,25.0,06.1,04.1,0673.1,31.0
2021-08-03T04:17:00Z,00000200,00000000,0004.98,0004.23,0002.16,0000.80,0000.55,0000.19,0000.68,0001.13,0000.78,18.6,25.0,06.1,04.1,0673.1,31.0
2021-08-03T04:18:00Z,00000200,00000000,0005.51,0004.13,0002.31,0001.00,0000.70,0000.27,0001.28,0001.20,0000.34,18.6,25.0,06.0,04.1,0673.1,31.0
2021-08-03T04:19:00Z,00000200,00000000,0005.23,0003.92,0002.12,0000.41,0000.55,0000.48,0000.87,0000.73,0000.70,18.7,25.0,06.0,04.1,0673.1,31.0
2021-08-03T04:20:00Z,00000200,00000000,0005.51,0003.86,0002.27,0000.58,0000.60,0000.20,0000.63,0000.79,0000.78,18.7,25.0,05.9,04.0,0673.1,31.0
2021-08-03T04:21:00Z,00000200,00000000,0005.73,0003.91,0002.44,0000.56,0000.74,0000.68,0001.65,0000.73,0000.52,18.7,25.0,06.1,04.1,0673.1,31.0
2021-08-03T04:22:00Z,00000200,00000000,0005.29,0003.76,0002.23,-000.11,0000.48,0000.27,0000.68,0001.12,0000.72,18.6,25.0,05.8,04.0,0673.1,31.0
2021-08-03T04:23:00Z,00000200,00000000,0005.07,0004.07,0002.54,0000.73,0000.75,0000.30,0000.81,0000.52,0000.51,18.6,25.0,05.8,03.9,0673.1,31.0
2021-08-03T04:24:00Z,00000200,00000000,0004.88,0004.08,0002.37,0000.16,0000.47,0000.15,0001.03,0001.11,0000.58,18.6,25.0,05.8,03.9,0673.1,31.0
2021-08-03T04:25:00Z,00000200,00000000,0005.91,0004.17,0001.94,0001.02,0000.82,0000.33,0001.46,0001.24,0001.25,18.5,25.0,06.0,04.0,0673.1,31.0
2021-08-03T04:26:00Z,00000200,00000000,0004.71,0003.73,0002.22,0000.96,0000.62,0000.36,0000.97,0000.71,0000.70,18.5,25.0,05.9,04.0,0673.1,30.9
2021-08-03T04:27:00Z,00000200,00000000,0005.11,0004.04,0002.52,0000.00,0000.71,0000.22,0001.02,0000.96,0000.57,18.5,24.9,05.8,03.9,0673.1,31.0
2021-08-03T04:28:00Z,00000200,00000000,0006.17,0003.96,0002.59,0001.38,0000.33,0000.23,0000.68,0000.98,0000.71,18.5,24.9,05.9,04.0,0673.1,30.9
2021-08-03T04:29:00Z,00000200,00000000,0004.68,0004.16,0002.39,0000.99,0000.52,0000.25,0001.42,0001.18,0000.49,18.5,24.9,05.8,03.9,0673.1,30.9
2021-08-03T04:30:00Z,00000200,00000000,0006.03,0003.56,0002.09,0000.70,0000.67,0000.19,0001.11,0000.91,0001.23,18.5,24.9,05.8,03.9,0673.1,30.9
2021-08-03T04:31:00Z,00000200,00000000,0005.39,0003.82,0002.22,0000.51,0000.38,0000.02,0001.23,0001.18,0000.70,18.5,24.9,05.7,03.9,0673.1,31.0
2021-08-03T04:32:00Z,00000200,00000000,0005.44,0003.91,0002.55,0000.47,0000.60,0000.10,0001.15,0001.05,0001.23,18.6,25.0,05.8,03.9,0673.0,31.0
2021-08-03T04:33:00Z,00000200,00000000,0004.64,0003.73,0002.42,0000.44,0000.54,0000.62,0001.10,0000.75,0000.02,18.7,25.0,05.8,04.0,0673.0,31.0
2021-08-03T04:34:00Z,00000200,00000000,0005.99,0003.59,0001.91,0000.60,0000.29,0000.08,0000.98,0001.20,0001.15,18.7,25.0,05.7,03.9,0673.0,31.0
2021-08-03T04:35:00Z,00000200,00000000,0004.12,0003.55,0002.14,0000.22,0000.54,0000.51,0001.03,0000.65,0000.52,18.8,25.1,05.6,03.8,0673.0,31.0
2021-08-03T04:36:00Z,00000200,00000000,0004.89,0003.87,0002.13,0000.81,0000.35,0000.16,0000.77,0000.98,0000.37,18.7,25.0,05.6,03.8,0673.0,31.0
2021-08-03T04:37:00Z,00000200,00000000,0005.21,0003.96,0002.30,0000.77,0000.36,0000.39,0000.87,0000.68,0000.67,18.7,25.0,05.6,03.8,0673.0,31.0
2021-08-03T04:38:00Z,00000200,00000000,0005.96,0003.63,0001.99,0000.58,0000.36,0000.08,0001.18,0000.98,0000.97,18.7,25.0,05.6,03.8,0673.0,31.0
2021-08-03T04:39:00Z,00000200,00000000,0005.25,0003.56,0002.06,0000.88,0000.45,-000.04,0000.96,0000.65,0000.47,18.6,25.0,05.6,03.8,0673.0,31.0
2021-08-03T04:40:00Z,00000200,00000000,0004.84,0003.64,0002.19,0000.14,0000.19,0000.46,0000.97,0000.85,0000.25,18.6,25.0,05.5,03.7,0673.0,31.0
2021-08-03T04:41:00Z,00000200,00000000,0005.63,0003.87,0002.25,0000.80,0000.22,0000.30,0001.13,0000.97,0001.02,18.6,24.9,05.5,03.7,0673.0,31.0
2021-08-03T04:42:00Z,00000200,00000000,0004.67,0003.92,0002.20,0000.71,0000.65,0000.41,0000.89,0001.05,0000.74,18.5,25.0,05.5,03.7,0673.0,31.0
2021-08-03T04:43:00Z,00000200,00000000,0005.32,0004.00,0002.31,0000.19,0000.64,0000.66,0000.85,0000.68,0000.56,18.5,24.9,05.5,03.7,0673.0,30.9
2021-08-03T04:44:00Z,00000200,00000000,0005.30,0003.90,0002.36,0000.56,0000.49,0000.71,0001.43,0001.12,0000.96,18.5,24.9,05.5,03.7,0673.0,30.9
2021-08-03T04:45:00Z,00000200,00000000,0005.56,0003.82,0002.30,0000.95,0000.37,0000.44,0000.80,0001.01,0000.83,18.5,24.9,05.5,03.7,0673.0,30.9
2021-08-03T04:46:00Z,00000200,00000000,0004.83,0003.67,0002.27,0000.34,0000.66,0000.16,0001.49,0001.43,0000.70,18.5,24.9,05.5,03.7,0673.0,31.0
2021-08-03T04:47:00Z,00000200,00000000,0005.32,0004.21,0001.72,0000.68,0000.47,0000.28,0000.64,0000.56,0000.54,18.6,25.0,05.4,03.7,0673.0,31.0
2021-08-03T04:48:00Z,00000200,00000000,0004.38,0003.56,0002.40,0001.01,0000.08,0000.08,0000.71,0000.80,0000.31,18.6,25.0,05.3,03.6,0673.0,31.0
2021-08-03T04:49:00Z,00000200,00000000,0005.32,0003.56,0001.83,0000.49,0000.57,0000.51,0000.85,0000.62,0000.56,18.6,25.0,05.2,03.5,0673.0,31.0
2021-08-03T04:50:00Z,00000200,00000000,0005.00,0003.38,0002.14,0000.35,0000.25,0000.47,0000.47,0000.56,0000.42,18.7,25.0,05.0,03.4,0673.1,31.0
2021-08-03T04:51:00Z,00000200,00000000,0005.60,0003.61,0002.27,0000.27,0000.44,0000.08,0000.96,0000.51,0000.06,18.6,25.0,05.0,03.4,0673.1,31.0
2021-08-03T04:52:00Z,00000200,00000000,0004.80,0003.10,0002.04,0000.48,0000.05,0000.10,0000.69,0000.57,0000.76,18.6,25.0,04.9,03.3,0673.1,30.9
2021-08-03T04:53:00Z,00000200,00000000,0004.52,0003.19,0001.74,0000.23,0000.33,0000.40,0000.65,0000.60,0000.27,18.6,24.9,04.8,03.3,0673.1,31.0
2021-08-03T04:54:00Z,00000200,00000000,0003.53,0002.67,0001.35,0000.45,0000.37,0000.33,0000.15,0000.10,-000.12,18.6,24.9,04.6,03.1,0673.1,31.0
2021-08-03T04:55:00Z,00000200,00000000,0003.58,0002.36,0000.64,0000.70,0000.23,0000.36,0000.18,0000.28,0000.10,18.5,24.9,04.3,02.9,0673.1,30.9
2021-08-03T04:56:00Z,00000200,00000000,0003.04,0002.65,0001.46,0000.32,0000.23,0000.39,0000.87,0000.72,0000.52,18.5,24.9,04.1,02.7,0673.2,30.9
2021-08-03T04:57:00Z,00000200,40000000,,,,,,,0001.07,0000.98,0001.03,18.5,24.9,03.8,02.6,0673.1,30.9
2021-08-03T04:58:00Z,00000200,60000000,,,,,,,-000.21,-000.15,-000.11,18.2,25.0,04.5,03.0,0672.2,30.9
2021-08-03T04:59:00Z,00000200,20000000,,,,,,,0000.08,0000.02,0000.10,18.2,25.1,04.6,03.0,0672.2,30.9
